This demonstration page uses our WeatherBlox Daily Observations layout. Learn more.

38.89511, -77.03637

Hourly Observations for July 22, 2017

Temp ( °F °C ) Dew Point ( °F °C ) Humidity (%) Winds ( mph kmh ) Pressure ( in mb ) Visibility ( mi km ) Precip ( " mm )
12:52 am 00:52 Cloudy 84 28.9 75 23.9 74 74 NW 9 15 29.88 1012 10 16.09344 0 0
1:52 am 01:52 Mostly Cloudy 83 28.3 73 22.8 72 72 NNW 10 17 29.88 1012 10 16.09344 0 0
2:52 am 02:52 Mostly Cloudy 82 27.8 74 23.3 77 77 NNW 10 17 29.85 1011 10 16.09344 0 0
3:52 am 03:52 Partly Cloudy 81 27.2 74 23.3 79 79 NNW 9 15 29.85 1011 10 16.09344 0 0
4:06 am 04:06 Mostly Cloudy 81 27.2 74 23.3 79 79 NW 10 17 29.88 1012 10 16.09344 0 0
4:52 am 04:52 Mostly Cloudy 81 27.2 74 23.3 79 79 NNW 7 11 29.85 1011 10 16.09344 0 0
5:52 am 05:52 Cloudy 80 26.7 73 22.8 79 79 NNW 9 15 29.85 1011 10 16.09344 0 0
6:20 am 06:20 Cloudy 80 26.7 73 22.8 79 79 NNW 9 15 29.88 1012 10 16.09344 0 0
6:52 am 06:52 Cloudy 80 26.7 73 22.8 79 79 NNW 12 19 29.88 1012 10 16.09344 0 0
7:25 am 07:25 Cloudy 81 27.2 73 22.8 77 77 NNW 12 19 29.91 1013 10 16.09344 0 0
7:52 am 07:52 Cloudy 81 27.2 73 22.8 77 77 NNW 10 17 29.88 1012 10 16.09344 0 0
8:52 am 08:52 Cloudy 84 28.9 74 23.3 72 72 N 6 9 29.91 1013 10 16.09344 0 0
9:52 am 09:52 Cloudy 86 30 73 22.8 65 65 W 3 6 29.88 1012 10 16.09344 0 0
10:52 am 10:52 Cloudy 89 31.7 73 22.8 59 59 SE 5 7 29.88 1012 10 16.09344 0 0
11:52 am 11:52 Cloudy 92 33.3 72 22.2 52 52 ENE 5 7 29.88 1012 10 16.09344 0 0
12:52 pm 12:52 Cloudy 93 33.9 70 21.1 47 47 Calm 29.85 1011 10 16.09344 0 0
1:52 pm 13:52 Mostly Cloudy 94 34.4 69 20.6 44 44 W 13 20 29.85 1011 10 16.09344 0 0
2:24 pm 14:24 Mostly Cloudy 93 33.9 70 21.1 47 47 WNW 8 13 29.85 1011 10 16.09344 0 0
2:35 pm 14:35 Windy with Storms Likely 91 32.8 70 21.1 50 50 N 29 46 29.88 1012 10 16.09344 0.001 0.001
2:46 pm 14:46 Windy with Storms Likely 82 28 68 20 62 62 NNW 29 46 29.91 1013 10 16.09344 0.001 0.001
2:52 pm 14:52 Cloudy with Heavy Thunderstorms 79 26.1 69 20.6 72 72 NNW 24 39 29.88 1012 2 3.218688 0.001 0.001
2:54 pm 14:54 Cloudy with Heavy Thunderstorms 77 25 70 21.1 79 79 NW 25 41 29.91 1013 1 1.609344 0.001 0.001
2:56 pm 14:56 Cloudy with Heavy Thunderstorms 76 24.4 71 21.7 85 85 NW 24 39 29.88 1012 0.5 0.804672 0.05 1.27
3:01 pm 15:01 Cloudy with Heavy Thunderstorms 74 23.3 72 22.2 94 94 N 17 28 29.88 1012 2 3.218688 0.25 6.35
3:05 pm 15:05 Cloudy with Light Thunderstorms 75 23.9 73 22.8 94 94 N 13 20 29.88 1012 7 11.265408 0.31 7.874
3:16 pm 15:16 Cloudy with Light Rain 76 24.4 74 23.3 94 94 N 8 13 29.88 1012 9 14.484096 0.32 8.128
3:31 pm 15:31 Cloudy with Light Rain 77 25 73 22.8 88 88 Calm 29.88 1012 10 16.09344 0.32 8.128
3:52 pm 15:52 Cloudy 78 25.6 73 22.8 85 85 W 6 9 29.83 1010 10 16.09344 0.32 8.128
4:52 pm 16:52 Mostly Cloudy 82 27.8 73 22.8 74 74 NNE 5 7 29.8 1009 10 16.09344 0.01 0.254
5:20 pm 17:20 Mostly Cloudy 83 28.3 73 22.8 72 72 NNW 8 13 29.83 1010 10 16.09344 0 0
5:43 pm 17:43 Mostly Cloudy with Thunderstorms 83 28.3 72 22.2 70 70 NW 13 20 29.83 1010 10 16.09344 0 0
5:52 pm 17:52 Mostly Cloudy with Thunderstorms 82 27.8 71 21.7 69 69 WNW 17 28 29.83 1010 10 16.09344 0 0
5:57 pm 17:57 Cloudy with Heavy Thunderstorms 81 27.2 72 22.2 74 74 NW 29 46 29.88 1012 0.5 0.804672 0.001 0.001
6:02 pm 18:02 Cloudy with Heavy Thunderstorms 76 24.4 72 22.2 88 88 NW 20 31 29.85 1011 2.5 4.02336 0.09 2.286
6:12 pm 18:12 Cloudy with Heavy Thunderstorms 76 24.4 72 22.2 88 88 WSW 10 17 29.85 1011 3 4.828032 0.15 3.81
6:17 pm 18:17 Cloudy with Light Thunderstorms 76 24.4 72 22.2 88 88 W 10 17 29.83 1010 8 12.874752 0.17 4.318
6:27 pm 18:27 Cloudy with Light Rain 76 24.4 72 22.2 88 88 SSW 7 11 29.83 1010 10 16.09344 0.17 4.318
6:52 pm 18:52 Cloudy with Light Rain 76 24.4 71 21.7 85 85 Calm 29.8 1009 10 16.09344 0.17 4.318
7:52 pm 19:52 Cloudy 77 25 71 21.7 82 82 Calm 29.77 1008 10 16.09344 0.02 0.508
8:52 pm 20:52 Cloudy with Light Rain 76 24.4 73 22.8 91 91 SSW 8 13 29.8 1009 10 16.09344 0.001 0.001
9:03 pm 21:03 Cloudy with Light Rain 76 24.4 72 22.2 88 88 WSW 7 11 29.8 1009 10 16.09344 0.001 0.001
9:25 pm 21:25 Cloudy with Light Thunderstorms 76 24.4 73 22.8 91 91 SW 6 9 29.77 1008 10 16.09344 0.001 0.001
9:48 pm 21:48 Cloudy with Heavy Thunderstorms 75 24 73 23 94 94 SW 18 30 29.83 1010 1.5 2.414016 0.001 0.001
9:52 pm 21:52 Cloudy with Heavy Thunderstorms 76 24.4 74 23.3 94 94 SW 16 26 29.83 1010 4 6.437376 0.09 2.286
9:59 pm 21:59 Cloudy with Light Thunderstorms 76 24.4 74 23.3 94 94 NNE 12 19 29.8 1009 7 11.265408 0.02 0.508
10:11 pm 22:11 Cloudy with Thunderstorms 76 24.4 74 23.3 94 94 NE 10 17 29.8 1009 10 16.09344 0.03 0.762
10:38 pm 22:38 Cloudy with Heavy Thunderstorms 76 24.4 73 22.8 91 91 W 6 9 29.83 1010 2.5 4.02336 0.03 0.762
10:42 pm 22:42 Cloudy with Heavy Thunderstorms 75 23.9 74 23.3 96 96 N 3 6 29.8 1009 1.5 2.414016 0.15 3.81
10:49 pm 22:49 Cloudy with Heavy Thunderstorms 75 24 73 23 94 94 SE 5 7 29.8 1009 4 6.437376 0.34 8.636
10:52 pm 22:52 Cloudy with Heavy Thunderstorms 75 23.9 74 23.3 96 96 Calm 29.8 1009 4 6.437376 0.35 8.89
10:57 pm 22:57 Cloudy with Light Thunderstorms 76 24.4 74 23.3 94 94 Calm 29.8 1009 6 9.656064 0.01 0.254
11:47 pm 23:47 Cloudy 75 24 73 23 94 94 S 8 13 29.8 1009 10 16.09344 0.02 0.508
11:52 pm 23:52 Cloudy 75 23.9 74 23.3 96 96 S 8 13 29.8 1009 10 16.09344 0.02 0.508

Powered by AerisWeather